Retour au catalogue

STARLINK-38033

ActifCommunicationsSSO
NORAD 69739·PAYLOAD·🇺🇸 United States

Lancé Jul 2, 2026 depuis Vandenberg Space Force Base

Loading…

Prochains Passages (prochaines 24 heures)

TLE

FraisSource: CelesTrak SupGP

Époque: Sep 14, 2026, 21:41 UTC

1 69739C 26150A   26257.90395833  .00088029  00000+0  27334-2 0  2574
2 69739  97.2849  96.8601 0001813  93.6546 314.4926 15.33384811    18

Suivez STARLINK-38033 en temps réel avec AllMySat

Download on the App Store